Precipitable_Water
0.49 0.48 0.48 0.48 0.48 0.47 0.46 0.45 0.44 0.44 0.44 0.44 0.44 0.41 0.38 0.35 0.32 0.32 0.31 0.32 0.31 0.32 0.32 0.30 0.30 0.30 0.28 0.29 0.33 0.33 0.29 0.26 0.25 0.33 0.30 0.39 0.53 0.54 0.51 0.53 0.50 0.51 0.54 0.62 0.68 0.62 0.54 0.50 0.40 0.45 0.45 0.45 0.54 0.65 0.81 0.90 0.97 0.92 0.77 0.71 0.65 0.68 0.68 0.74 0.74 0.76 0.80 0.73 0.71 0.71 0.75 0.77 0.69 0.64 0.57 0.56 0.50 0.47 0.44 0.42 0.41 0.40 0.42 0.48 0.57 0.61 0.60 0.66
0.50 0.50 0.50 0.49 0.48 0.47 0.47 0.45 0.46 0.46 0.46 0.44 0.44 0.43 0.39 0.36 0.33 0.32 0.31 0.30 0.30 0.31 0.31 0.31 0.30 0.31 0.29 0.29 0.35 0.32 0.27 0.26 0.22 0.30 0.33 0.50 0.53 0.54 0.54 0.50 0.49 0.48 0.49 0.46 0.51 0.54 0.48 0.46 0.40 0.39 0.39 0.36 0.45 0.47 0.68 0.71 0.88 0.79 0.77 0.74 0.63 0.72 0.74 0.83 0.82 0.84 0.80 0.76 0.74 0.72 0.74 0.75 0.76 0.74 0.63 0.56 0.52 0.48 0.44 0.44 0.45 0.44 0.43 0.44 0.48 0.55 0.64 0.62
0.49 0.50 0.50 0.49 0.49 0.48 0.48 0.46 0.47 0.46 0.46 0.46 0.44 0.43 0.39 0.36 0.34 0.33 0.32 0.31 0.29 0.30 0.31 0.30 0.30 0.30 0.29 0.30 0.34 0.32 0.27 0.21 0.27 0.25 0.42 0.53 0.51 0.51 0.49 0.48 0.48 0.48 0.45 0.38 0.43 0.44 0.49 0.52 0.44 0.37 0.36 0.33 0.39 0.36 0.48 0.58 0.72 0.76 0.73 0.66 0.69 0.81 0.83 0.86 0.85 0.83 0.85 0.84 0.77 0.73 0.73 0.75 0.79 0.78 0.74 0.60 0.54 0.50 0.44 0.42 0.43 0.44 0.45 0.46 0.48 0.58 0.57 0.61
0.49 0.49 0.49 0.49 0.49 0.47 0.47 0.47 0.46 0.46 0.47 0.46 0.45 0.42 0.38 0.35 0.35 0.34 0.33 0.31 0.30 0.30 0.30 0.30 0.31 0.31 0.29 0.31 0.35 0.31 0.29 0.25 0.19 0.33 0.46 0.52 0.50 0.49 0.46 0.46 0.45 0.45 0.45 0.44 0.45 0.40 0.45 0.49 0.47 0.40 0.34 0.30 0.36 0.38 0.34 0.46 0.52 0.63 0.66 0.61 0.69 0.81 0.80 0.85 0.89 0.88 0.88 0.87 0.83 0.77 0.75 0.72 0.78 0.84 0.79 0.69 0.62 0.57 0.50 0.51 0.47 0.43 0.44 0.46 0.53 0.57 0.56 0.59
0.48 0.49 0.48 0.48 0.47 0.46 0.46 0.45 0.45 0.45 0.45 0.45 0.45 0.41 0.38 0.36 0.34 0.33 0.32 0.31 0.30 0.29 0.28 0.29 0.31 0.32 0.31 0.33 0.30 0.34 0.24 0.14 0.23 0.37 0.45 0.47 0.48 0.47 0.45 0.45 0.44 0.42 0.42 0.40 0.43 0.45 0.39 0.38 0.43 0.41 0.36 0.29 0.30 0.34 0.33 0.37 0.39 0.48 0.51 0.60 0.66 0.73 0.73 0.82 0.87 0.90 0.89 0.92 0.86 0.84 0.76 0.75 0.80 0.80 0.83 0.79 0.67 0.63 0.61 0.58 0.56 0.55 0.55 0.51 0.52 0.54 0.58 0.63
0.46 0.47 0.47 0.46 0.45 0.45 0.44 0.44 0.44 0.44 0.44 0.43 0.43 0.39 0.37 0.35 0.34 0.34 0.32 0.31 0.30 0.28 0.27 0.28 0.32 0.32 0.33 0.34 0.29 0.26 0.22 0.04 0.32 0.31 0.44 0.42 0.43 0.43 0.43 0.43 0.44 0.42 0.40 0.35 0.36 0.35 0.31 0.31 0.34 0.31 0.33 0.32 0.29 0.27 0.32 0.33 0.34 0.28 0.38 0.45 0.52 0.59 0.63 0.75 0.80 0.79 0.83 0.83 0.83 0.81 0.81 0.82 0.79 0.78 0.84 0.84 0.78 0.79 0.84 0.73 0.64 0.61 0.58 0.59 0.56 0.57 0.59 0.62
0.45 0.46 0.48 0.46 0.44 0.43 0.43 0.43 0.44 0.43 0.43 0.42 0.41 0.38 0.35 0.34 0.34 0.33 0.32 0.30 0.28 0.26 0.26 0.29 0.33 0.32 0.33 0.32 0.29 0.24 0.15 0.16 0.30 0.38 0.38 0.38 0.40 0.40 0.40 0.41 0.41 0.39 0.37 0.31 0.34 0.31 0.32 0.29 0.29 0.27 0.27 0.30 0.30 0.29 0.31 0.31 0.34 0.27 0.27 0.34 0.38 0.42 0.45 0.55 0.58 0.61 0.67 0.73 0.75 0.80 0.81 0.76 0.76 0.73 0.83 0.82 0.87 0.90 0.93 0.94 0.82 0.68 0.61 0.59 0.56 0.59 0.61 0.62
0.46 0.47 0.46 0.44 0.43 0.43 0.43 0.43 0.43 0.43 0.43 0.42 0.39 0.35 0.33 0.33 0.33 0.32 0.31 0.30 0.25 0.25 0.28 0.31 0.32 0.32 0.33 0.25 0.23 0.20 0.17 0.15 0.34 0.42 0.37 0.36 0.36 0.37 0.38 0.37 0.39 0.39 0.32 0.29 0.29 0.29 0.32 0.25 0.23 0.27 0.25 0.24 0.29 0.29 0.30 0.30 0.31 0.29 0.27 0.30 0.32 0.34 0.39 0.44 0.48 0.52 0.56 0.60 0.67 0.72 0.73 0.74 0.77 0.76 0.81 0.81 0.86 0.88 0.89 0.90 0.89 0.82 0.69 0.60 0.58 0.55 0.55 0.57
0.45 0.45 0.44 0.44 0.43 0.43 0.42 0.42 0.43 0.44 0.43 0.41 0.38 0.34 0.32 0.31 0.31 0.31 0.30 0.26 0.23 0.25 0.30 0.31 0.32 0.31 0.33 0.30 0.20 0.14 0.14 0.33 0.40 0.39 0.36 0.32 0.33 0.34 0.33 0.28 0.35 0.32 0.30 0.31 0.31 0.32 0.31 0.26 0.26 0.28 0.21 0.23 0.30 0.29 0.30 0.28 0.28 0.33 0.31 0.31 0.29 0.30 0.35 0.39 0.41 0.44 0.48 0.51 0.55 0.59 0.63 0.68 0.71 0.74 0.72 0.78 0.83 0.85 0.86 0.84 0.85 0.83 0.76 0.68 0.60 0.58 0.56 0.56
0.44 0.45 0.45 0.44 0.43 0.43 0.42 0.42 0.42 0.43 0.42 0.41 0.37 0.32 0.31 0.31 0.31 0.31 0.26 0.23 0.24 0.25 0.28 0.32 0.33 0.31 0.27 0.25 0.23 0.10 0.28 0.38 0.37 0.37 0.33 0.30 0.32 0.31 0.29 0.31 0.30 0.27 0.26 0.28 0.31 0.30 0.29 0.32 0.32 0.34 0.30 0.25 0.29 0.26 0.30 0.28 0.26 0.34 0.33 0.31 0.29 0.29 0.31 0.36 0.37 0.39 0.41 0.43 0.48 0.48 0.51 0.55 0.60 0.61 0.57 0.67 0.70 0.75 0.77 0.81 0.82 0.82 0.80 0.75 0.69 0.65 0.62 0.60
0.45 0.45 0.45 0.44 0.43 0.43 0.42 0.42 0.42 0.42 0.41 0.39 0.35 0.32 0.29 0.30 0.31 0.28 0.22 0.22 0.24 0.24 0.28 0.32 0.35 0.32 0.23 0.26 0.14 0.10 0.35 0.31 0.34 0.35 0.30 0.27 0.29 0.28 0.30 0.31 0.28 0.22 0.25 0.27 0.27 0.30 0.32 0.34 0.38 0.35 0.28 0.21 0.26 0.25 0.26 0.27 0.32 0.31 0.32 0.32 0.30 0.29 0.30 0.31 0.31 0.33 0.35 0.35 0.40 0.41 0.41 0.46 0.49 0.51 0.52 0.60 0.65 0.65 0.63 0.66 0.72 0.78 0.80 0.78 0.76 0.71 0.68 0.65
0.47 0.47 0.46 0.46 0.44 0.42 0.42 0.43 0.42 0.42 0.40 0.38 0.33 0.31 0.29 0.30 0.31 0.24 0.23 0.23 0.23 0.25 0.28 0.29 0.32 0.31 0.25 0.20 0.15 0.18 0.31 0.30 0.32 0.32 0.29 0.28 0.27 0.30 0.30 0.30 0.30 0.28 0.27 0.21 0.27 0.33 0.34 0.33 0.36 0.32 0.22 0.33 0.20 0.25 0.24 0.31 0.29 0.30 0.30 0.26 0.28 0.29 0.27 0.29 0.27 0.27 0.28 0.29 0.33 0.36 0.35 0.36 0.40 0.42 0.49 0.53 0.59 0.60 0.58 0.56 0.58 0.64 0.75 0.80 0.79 0.76 0.72 0.68
0.48 0.48 0.49 0.48 0.46 0.44 0.42 0.43 0.43 0.42 0.40 0.36 0.32 0.28 0.29 0.30 0.29 0.22 0.24 0.22 0.22 0.25 0.29 0.30 0.29 0.32 0.26 0.14 0.23 0.33 0.35 0.36 0.35 0.29 0.28 0.30 0.29 0.29 0.33 0.33 0.32 0.31 0.27 0.23 0.27 0.30 0.28 0.29 0.31 0.26 0.33 0.32 0.28 0.21 0.32 0.30 0.27 0.27 0.26 0.24 0.24 0.26 0.26 0.28 0.29 0.28 0.26 0.25 0.27 0.27 0.23 0.28 0.33 0.37 0.39 0.43 0.46 0.50 0.52 0.51 0.52 0.52 0.56 0.65 0.73 0.76 0.73 0.71
0.47 0.48 0.47 0.46 0.45 0.43 0.43 0.43 0.42 0.41 0.39 0.35 0.31 0.27 0.29 0.30 0.28 0.23 0.22 0.21 0.22 0.24 0.30 0.34 0.36 0.30 0.25 0.15 0.29 0.39 0.37 0.37 0.36 0.32 0.27 0.28 0.30 0.35 0.31 0.36 0.36 0.32 0.34 0.27 0.27 0.29 0.27 0.29 0.26 0.26 0.37 0.30 0.25 0.38 0.29 0.27 0.27 0.20 0.23 0.25 0.20 0.19 0.20 0.28 0.31 0.31 0.28 0.29 0.27 0.25 0.19 0.24 0.28 0.34 0.41 0.43 0.42 0.43 0.44 0.45 0.45 0.46 0.47 0.50 0.56 0.66 0.72 0.69
0.45 0.47 0.47 0.46 0.44 0.44 0.42 0.42 0.41 0.40 0.38 0.34 0.29 0.27 0.30 0.29 0.28 0.25 0.24 0.21 0.23 0.25 0.29 0.32 0.35 0.28 0.19 0.21 0.39 0.44 0.40 0.39 0.33 0.29 0.32 0.27 0.28 0.30 0.33 0.34 0.33 0.31 0.32 0.30 0.29 0.30 0.29 0.27 0.25 0.19 0.15 0.23 0.26 0.25 0.21 0.21 0.22 0.23 0.17 0.16 0.20 0.18 0.18 0.23 0.28 0.28 0.27 0.31 0.33 0.28 0.21 0.21 0.24 0.28 0.34 0.39 0.42 0.41 0.41 0.44 0.44 0.45 0.44 0.43 0.46 0.52 0.61 0.69
0.48 0.47 0.47 0.45 0.44 0.44 0.43 0.42 0.41 0.40 0.38 0.33 0.29 0.27 0.29 0.29 0.28 0.25 0.23 0.24 0.22 0.28 0.32 0.28 0.31 0.25 0.20 0.13 0.31 0.46 0.33 0.25 0.27 0.30 0.35 0.33 0.29 0.28 0.33 0.28 0.34 0.33 0.30 0.31 0.32 0.31 0.28 0.28 0.19 0.19 0.19 0.25 0.16 0.14 0.12 0.11 0.12 0.16 0.15 0.12 0.15 0.18 0.18 0.21 0.24 0.26 0.26 0.27 0.30 0.28 0.23 0.24 0.26 0.28 0.31 0.35 0.37 0.38 0.38 0.41 0.43 0.43 0.44 0.42 0.41 0.45 0.50 0.57
0.48 0.48 0.47 0.45 0.44 0.44 0.43 0.42 0.42 0.41 0.38 0.34 0.30 0.27 0.28 0.28 0.27 0.23 0.22 0.21 0.26 0.32 0.35 0.28 0.33 0.34 0.10 0.34 0.38 0.24 0.24 0.29 0.32 0.29 0.30 0.33 0.31 0.31 0.31 0.29 0.28 0.31 0.31 0.32 0.32 0.30 0.28 0.21 0.23 0.21 0.22 0.19 0.17 0.12 0.09 0.08 0.08 0.11 0.15 0.12 0.12 0.12 0.17 0.18 0.24 0.27 0.28 0.27 0.22 0.25 0.23 0.25 0.29 0.31 0.33 0.33 0.35 0.36 0.38 0.39 0.41 0.41 0.41 0.44 0.43 0.42 0.44 0.48
0.48 0.47 0.47 0.46 0.45 0.44 0.43 0.43 0.42 0.41 0.38 0.34 0.32 0.25 0.25 0.26 0.26 0.20 0.22 0.26 0.28 0.32 0.35 0.36 0.33 0.25 0.19 0.31 0.17 0.20 0.29 0.26 0.25 0.26 0.29 0.32 0.33 0.32 0.29 0.27 0.31 0.26 0.31 0.25 0.30 0.22 0.26 0.19 0.24 0.12 0.14 0.12 0.15 0.13 0.08 0.05 0.07 0.09 0.13 0.14 0.14 0.15 0.13 0.15 0.20 0.25 0.26 0.28 0.24 0.23 0.22 0.22 0.26 0.30 0.33 0.33 0.33 0.33 0.33 0.35 0.36 0.37 0.38 0.40 0.43 0.44 0.44 0.44
0.48 0.48 0.47 0.46 0.45 0.44 0.43 0.44 0.42 0.41 0.38 0.36 0.32 0.27 0.27 0.26 0.26 0.25 0.24 0.20 0.12 0.15 0.14 0.18 0.14 0.07 0.05 0.17 0.24 0.23 0.24 0.28 0.25 0.20 0.19 0.28 0.34 0.34 0.29 0.31 0.32 0.26 0.17 0.21 0.23 0.23 0.26 0.21 0.23 0.15 0.13 0.13 0.10 0.12 0.10 0.08 0.15 0.14 0.16 0.18 0.18 0.16 0.16 0.15 0.19 0.26 0.26 0.25 0.24 0.23 0.20 0.21 0.23 0.24 0.29 0.33 0.34 0.32 0.32 0.35 0.36 0.38 0.38 0.39 0.40 0.42 0.43 0.43
0.49 0.48 0.47 0.47 0.45 0.45 0.45 0.44 0.44 0.42 0.40 0.35 0.28 0.22 0.18 0.13 0.13 0.14 0.18 0.15 0.11 0.10 0.09 0.11 0.15 0.14 0.13 0.13 0.14 0.21 0.25 0.25 0.15 0.19 0.27 0.33 0.31 0.28 0.25 0.26 0.24 0.26 0.21 0.16 0.22 0.21 0.27 0.14 0.12 0.11 0.10 0.15 0.16 0.15 0.14 0.14 0.14 0.15 0.16 0.17 0.17 0.17 0.18 0.20 0.20 0.24 0.27 0.23 0.20 0.21 0.21 0.21 0.21 0.22 0.24 0.29 0.31 0.32 0.33 0.33 0.34 0.36 0.37 0.38 0.38 0.40 0.41 0.40
0.49 0.49 0.47 0.45 0.46 0.46 0.45 0.45 0.46 0.45 0.43 0.39 0.32 0.22 0.14 0.17 0.11 0.09 0.14 0.13 0.13 0.14 0.13 0.13 0.15 0.14 0.12 0.17 0.21 0.20 0.15 0.17 0.20 0.25 0.26 0.37 0.31 0.27 0.21 0.25 0.21 0.16 0.16 0.22 0.22 0.31 0.24 0.15 0.12 0.14 0.15 0.19 0.20 0.22 0.20 0.17 0.15 0.14 0.14 0.14 0.14 0.16 0.14 0.18 0.18 0.21 0.25 0.22 0.19 0.22 0.20 0.20 0.20 0.21 0.22 0.24 0.25 0.26 0.29 0.31 0.33 0.34 0.35 0.36 0.37 0.38 0.40 0.41
0.49 0.47 0.47 0.46 0.46 0.47 0.46 0.45 0.47 0.46 0.47 0.38 0.32 0.24 0.25 0.25 0.28 0.28 0.23 0.09 0.11 0.14 0.15 0.16 0.20 0.17 0.21 0.19 0.20 0.21 0.21 0.19 0.18 0.24 0.32 0.31 0.26 0.19 0.22 0.21 0.16 0.12 0.22 0.21 0.23 0.20 0.14 0.09 0.09 0.18 0.22 0.20 0.18 0.17 0.17 0.16 0.14 0.14 0.12 0.11 0.09 0.09 0.12 0.15 0.16 0.19 0.24 0.21 0.17 0.19 0.17 0.16 0.16 0.17 0.18 0.18 0.18 0.19 0.22 0.26 0.28 0.29 0.31 0.33 0.36 0.38 0.40 0.42
0.49 0.48 0.47 0.47 0.47 0.48 0.48 0.45 0.47 0.48 0.40 0.35 0.30 0.28 0.26 0.33 0.37 0.34 0.27 0.18 0.12 0.15 0.16 0.16 0.16 0.17 0.17 0.25 0.24 0.25 0.17 0.16 0.16 0.23 0.25 0.27 0.23 0.21 0.27 0.23 0.17 0.17 0.23 0.22 0.13 0.11 0.09 0.10 0.15 0.20 0.19 0.17 0.13 0.12 0.11 0.12 0.12 0.10 0.10 0.08 0.07 0.08 0.09 0.08 0.11 0.15 0.20 0.19 0.16 0.17 0.15 0.15 0.18 0.18 0.17 0.17 0.16 0.16 0.16 0.18 0.20 0.22 0.23 0.25 0.28 0.30 0.32 0.36
0.49 0.49 0.48 0.47 0.46 0.45 0.44 0.46 0.51 0.43 0.35 0.37 0.33 0.32 0.36 0.39 0.36 0.32 0.22 0.13 0.09 0.11 0.18 0.20 0.19 0.18 0.19 0.21 0.27 0.20 0.18 0.22 0.22 0.23 0.34 0.25 0.20 0.23 0.23 0.23 0.17 0.16 0.16 0.20 0.15 0.12 0.11 0.19 0.21 0.18 0.16 0.13 0.09 0.08 0.10 0.11 0.09 0.11 0.10 0.09 0.09 0.11 0.13 0.11 0.15 0.19 0.21 0.21 0.21 0.18 0.14 0.11 0.13 0.12 0.12 0.12 0.14 0.16 0.17 0.18 0.19 0.21 0.22 0.23 0.25 0.27 0.28 0.28
0.50 0.51 0.49 0.46 0.46 0.48 0.44 0.45 0.42 0.35 0.36 0.36 0.34 0.38 0.39 0.39 0.37 0.32 0.21 0.14 0.15 0.13 0.26 0.23 0.21 0.21 0.24 0.34 0.30 0.20 0.20 0.23 0.26 0.32 0.33 0.27 0.26 0.24 0.19 0.23 0.19 0.15 0.16 0.18 0.15 0.12 0.10 0.14 0.19 0.15 0.13 0.12 0.09 0.08 0.09 0.11 0.10 0.11 0.13 0.12 0.11 0.13 0.13 0.15 0.15 0.14 0.12 0.10 0.11 0.10 0.08 0.09 0.13 0.15 0.15 0.18 0.18 0.17 0.16 0.15 0.15 0.17 0.19 0.20 0.20 0.22 0.25 0.27
0.50 0.50 0.49 0.47 0.47 0.47 0.45 0.35 0.33 0.38 0.33 0.31 0.36 0.38 0.39 0.39 0.39 0.31 0.23 0.10 0.06 0.12 0.20 0.11 0.24 0.19 0.32 0.22 0.24 0.22 0.21 0.14 0.28 0.30 0.32 0.31 0.37 0.27 0.26 0.20 0.20 0.12 0.15 0.15 0.14 0.15 0.12 0.15 0.15 0.12 0.10 0.09 0.09 0.08 0.10 0.14 0.11 0.10 0.11 0.16 0.16 0.16 0.16 0.15 0.14 0.12 0.07 0.05 0.15 0.18 0.10 0.08 0.15 0.13 0.16 0.17 0.17 0.16 0.16 0.15 0.14 0.16 0.18 0.19 0.21 0.24 0.26 0.28
0.52 0.50 0.49 0.47 0.46 0.47 0.35 0.27 0.40 0.39 0.26 0.32 0.40 0.41 0.38 0.37 0.40 0.30 0.17 0.08 0.06 0.16 0.10 0.22 0.17 0.23 0.27 0.26 0.21 0.23 0.08 0.13 0.32 0.32 0.27 0.30 0.23 0.34 0.19 0.18 0.19 0.18 0.22 0.22 0.17 0.12 0.14 0.12 0.12 0.12 0.09 0.08 0.09 0.08 0.10 0.13 0.12 0.10 0.15 0.14 0.18 0.18 0.16 0.15 0.14 0.11 0.08 0.12 0.14 0.16 0.14 0.09 0.07 0.08 0.11 0.13 0.12 0.11 0.12 0.13 0.13 0.15 0.18 0.20 0.22 0.24 0.25 0.27
0.51 0.51 0.49 0.48 0.46 0.44 0.38 0.41 0.39 0.30 0.32 0.41 0.43 0.39 0.40 0.36 0.36 0.32 0.16 0.04 0.03 0.16 0.11 0.15 0.20 0.32 0.23 0.24 0.23 0.16 0.16 0.16 0.11 0.21 0.28 0.30 0.27 0.24 0.19 0.15 0.18 0.19 0.20 0.19 0.09 0.17 0.17 0.14 0.14 0.11 0.10 0.10 0.09 0.10 0.12 0.15 0.12 0.13 0.17 0.16 0.13 0.14 0.13 0.13 0.12 0.12 0.12 0.12 0.09 0.09 0.12 0.08 0.07 0.08 0.12 0.14 0.11 0.12 0.11 0.11 0.11 0.13 0.17 0.21 0.21 0.23 0.25 0.26
0.52 0.50 0.49 0.47 0.45 0.44 0.48 0.43 0.37 0.32 0.43 0.45 0.42 0.39 0.38 0.39 0.28 0.16 0.07 0.04 0.11 0.09 0.28 0.14 0.31 0.22 0.19 0.21 0.17 0.17 0.17 0.18 0.10 0.23 0.27 0.28 0.28 0.25 0.16 0.17 0.18 0.19 0.22 0.20 0.12 0.14 0.18 0.19 0.18 0.15 0.12 0.09 0.09 0.11 0.12 0.12 0.12 0.16 0.17 0.18 0.16 0.16 0.15 0.14 0.13 0.12 0.12 0.11 0.06 0.07 0.10 0.07 0.06 0.09 0.12 0.14 0.11 0.10 0.09 0.10 0.11 0.13 0.17 0.20 0.21 0.23 0.24 0.25
0.50 0.50 0.49 0.47 0.45 0.43 0.43 0.41 0.36 0.48 0.48 0.47 0.42 0.38 0.39 0.33 0.21 0.11 0.07 0.03 0.08 0.06 0.15 0.20 0.14 0.14 0.17 0.13 0.13 0.15 0.13 0.15 0.16 0.17 0.20 0.18 0.21 0.24 0.22 0.27 0.20 0.17 0.16 0.20 0.16 0.14 0.16 0.22 0.23 0.17 0.12 0.11 0.11 0.11 0.12 0.14 0.16 0.21 0.18 0.15 0.15 0.13 0.13 0.12 0.11 0.11 0.10 0.07 0.06 0.07 0.09 0.09 0.05 0.08 0.09 0.08 0.09 0.10 0.11 0.12 0.13 0.15 0.18 0.20 0.21 0.22 0.22 0.23
0.48 0.48 0.46 0.48 0.39 0.41 0.39 0.31 0.42 0.48 0.47 0.44 0.41 0.36 0.33 0.25 0.10 0.06 0.03 0.04 0.07 0.07 0.13 0.14 0.12 0.17 0.12 0.10 0.08 0.15 0.13 0.14 0.14 0.15 0.13 0.19 0.17 0.19 0.19 0.18 0.22 0.15 0.14 0.14 0.13 0.12 0.14 0.14 0.12 0.12 0.14 0.13 0.11 0.10 0.15 0.19 0.19 0.17 0.15 0.12 0.11 0.11 0.12 0.12 0.11 0.13 0.08 0.05 0.06 0.07 0.09 0.09 0.05 0.07 0.10 0.12 0.13 0.14 0.12 0.12 0.13 0.15 0.16 0.18 0.19 0.20 0.21 0.22
0.48 0.47 0.47 0.45 0.45 0.46 0.33 0.28 0.39 0.45 0.45 0.45 0.37 0.25 0.22 0.08 0.13 0.05 0.04 0.10 0.04 0.09 0.07 0.08 0.13 0.11 0.10 0.11 0.09 0.10 0.09 0.11 0.13 0.12 0.10 0.12 0.11 0.11 0.12 0.08 0.12 0.07 0.07 0.08 0.07 0.10 0.10 0.10 0.11 0.13 0.15 0.12 0.10 0.09 0.13 0.16 0.17 0.15 0.13 0.12 0.07 0.05 0.08 0.06 0.10 0.07 0.07 0.04 0.05 0.08 0.09 0.08 0.08 0.07 0.07 0.11 0.13 0.16 0.16 0.15 0.15 0.15 0.16 0.17 0.18 0.20 0.20 0.21
0.49 0.47 0.47 0.45 0.45 0.41 0.41 0.44 0.45 0.46 0.46 0.41 0.33 0.25 0.12 0.08 0.04 0.05 0.06 0.06 0.05 0.07 0.07 0.10 0.08 0.09 0.09 0.08 0.07 0.08 0.11 0.07 0.11 0.11 0.11 0.13 0.11 0.11 0.13 0.11 0.12 0.09 0.05 0.08 0.09 0.10 0.09 0.13 0.14 0.13 0.15 0.15 0.12 0.08 0.09 0.11 0.13 0.12 0.10 0.09 0.07 0.05 0.05 0.05 0.06 0.07 0.08 0.09 0.10 0.09 0.11 0.08 0.10 0.10 0.10 0.08 0.11 0.16 0.15 0.16 0.18 0.17 0.17 0.18 0.18 0.18 0.18 0.18
0.47 0.46 0.40 0.42 0.44 0.43 0.42 0.43 0.43 0.45 0.41 0.37 0.26 0.18 0.15 0.07 0.04 0.08 0.06 0.06 0.06 0.09 0.09 0.07 0.08 0.08 0.08 0.05 0.05 0.08 0.06 0.09 0.09 0.09 0.11 0.08 0.10 0.07 0.10 0.13 0.13 0.11 0.10 0.07 0.06 0.05 0.04 0.05 0.09 0.12 0.09 0.14 0.12 0.09 0.07 0.08 0.10 0.10 0.10 0.09 0.07 0.05 0.04 0.03 0.04 0.04 0.05 0.05 0.08 0.11 0.11 0.08 0.08 0.07 0.15 0.13 0.12 0.18 0.17 0.18 0.20 0.19 0.19 0.19 0.17 0.16 0.16 0.17
0.46 0.42 0.41 0.41 0.40 0.41 0.40 0.41 0.41 0.43 0.41 0.32 0.21 0.14 0.06 0.04 0.06 0.05 0.05 0.06 0.07 0.08 0.07 0.09 0.07 0.07 0.06 0.07 0.07 0.09 0.07 0.06 0.09 0.09 0.09 0.08 0.07 0.07 0.06 0.08 0.12 0.12 0.11 0.07 0.07 0.07 0.06 0.05 0.08 0.12 0.12 0.14 0.10 0.11 0.11 0.14 0.13 0.14 0.14 0.14 0.11 0.07 0.07 0.04 0.05 0.06 0.07 0.07 0.08 0.11 0.10 0.11 0.11 0.17 0.20 0.19 0.17 0.17 0.19 0.18 0.18 0.16 0.17 0.15 0.15 0.15 0.15 0.16
0.41 0.37 0.39 0.34 0.34 0.35 0.39 0.41 0.43 0.45 0.37 0.27 0.16 0.09 0.06 0.06 0.05 0.07 0.06 0.10 0.09 0.07 0.08 0.09 0.08 0.06 0.05 0.05 0.08 0.06 0.09 0.06 0.08 0.09 0.09 0.09 0.07 0.07 0.07 0.08 0.08 0.11 0.10 0.07 0.07 0.06 0.07 0.06 0.08 0.11 0.14 0.13 0.10 0.12 0.12 0.14 0.07 0.13 0.13 0.11 0.09 0.13 0.11 0.09 0.08 0.07 0.09 0.08 0.07 0.11 0.12 0.13 0.15 0.14 0.14 0.15 0.13 0.14 0.15 0.15 0.15 0.14 0.14 0.15 0.15 0.15 0.16 0.17
0.35 0.36 0.28 0.30 0.30 0.34 0.38 0.40 0.41 0.38 0.35 0.24 0.14 0.07 0.09 0.09 0.09 0.08 0.08 0.09 0.10 0.10 0.08 0.05 0.06 0.06 0.05 0.05 0.05 0.07 0.08 0.09 0.08 0.08 0.06 0.08 0.07 0.08 0.07 0.07 0.10 0.11 0.11 0.09 0.07 0.08 0.06 0.06 0.13 0.11 0.09 0.15 0.16 0.15 0.14 0.14 0.13 0.14 0.13 0.12 0.15 0.19 0.16 0.11 0.06 0.06 0.05 0.04 0.04 0.05 0.05 0.06 0.08 0.06 0.12 0.10 0.10 0.12 0.13 0.15 0.15 0.15 0.15 0.15 0.15 0.16 0.16 0.16
0.32 0.29 0.27 0.26 0.29 0.34 0.35 0.37 0.38 0.36 0.29 0.21 0.12 0.09 0.12 0.10 0.12 0.12 0.12 0.12 0.11 0.11 0.09 0.07 0.07 0.08 0.06 0.06 0.05 0.07 0.10 0.07 0.07 0.08 0.06 0.07 0.05 0.09 0.07 0.07 0.09 0.10 0.12 0.13 0.08 0.08 0.09 0.06 0.08 0.11 0.11 0.15 0.18 0.16 0.14 0.15 0.17 0.11 0.13 0.23 0.13 0.09 0.09 0.12 0.09 0.05 0.05 0.05 0.05 0.06 0.06 0.06 0.06 0.05 0.10 0.11 0.11 0.12 0.14 0.15 0.15 0.15 0.15 0.15 0.15 0.16 0.16 0.16
0.31 0.27 0.19 0.25 0.35 0.37 0.36 0.39 0.37 0.31 0.23 0.16 0.12 0.10 0.13 0.13 0.15 0.14 0.15 0.16 0.16 0.13 0.10 0.10 0.08 0.09 0.08 0.07 0.08 0.10 0.10 0.07 0.08 0.07 0.06 0.07 0.05 0.09 0.08 0.08 0.08 0.11 0.12 0.13 0.11 0.09 0.10 0.07 0.07 0.11 0.10 0.13 0.15 0.14 0.07 0.09 0.14 0.18 0.19 0.17 0.19 0.13 0.10 0.09 0.09 0.07 0.06 0.05 0.05 0.05 0.06 0.05 0.07 0.07 0.09 0.10 0.11 0.13 0.14 0.15 0.15 0.16 0.17 0.16 0.16 0.16 0.15 0.15
0.26 0.21 0.17 0.30 0.34 0.38 0.41 0.39 0.31 0.27 0.20 0.11 0.11 0.12 0.14 0.13 0.14 0.18 0.20 0.19 0.16 0.15 0.13 0.12 0.13 0.10 0.10 0.10 0.10 0.09 0.11 0.10 0.09 0.09 0.08 0.08 0.07 0.14 0.10 0.13 0.10 0.12 0.13 0.14 0.12 0.12 0.08 0.10 0.06 0.08 0.13 0.15 0.09 0.12 0.08 0.07 0.08 0.11 0.12 0.12 0.15 0.15 0.15 0.13 0.13 0.10 0.07 0.05 0.05 0.05 0.04 0.06 0.09 0.12 0.12 0.11 0.12 0.14 0.14 0.15 0.16 0.16 0.16 0.17 0.17 0.17 0.16 0.16
0.29 0.21 0.18 0.29 0.33 0.39 0.38 0.31 0.22 0.17 0.15 0.17 0.18 0.14 0.15 0.13 0.16 0.17 0.20 0.21 0.20 0.22 0.17 0.16 0.15 0.13 0.13 0.12 0.11 0.13 0.12 0.12 0.11 0.09 0.10 0.09 0.09 0.07 0.12 0.11 0.13 0.11 0.15 0.13 0.13 0.12 0.09 0.09 0.07 0.08 0.10 0.10 0.08 0.11 0.10 0.09 0.10 0.09 0.09 0.08 0.10 0.11 0.10 0.08 0.06 0.11 0.11 0.08 0.06 0.06 0.04 0.06 0.10 0.14 0.13 0.15 0.15 0.15 0.16 0.16 0.16 0.16 0.16 0.17 0.17 0.17 0.17 0.16
0.21 0.12 0.14 0.35 0.38 0.37 0.27 0.16 0.16 0.21 0.18 0.14 0.12 0.16 0.15 0.20 0.18 0.19 0.20 0.21 0.21 0.18 0.21 0.19 0.18 0.17 0.17 0.15 0.15 0.15 0.14 0.13 0.14 0.13 0.12 0.10 0.11 0.11 0.13 0.15 0.14 0.15 0.12 0.10 0.10 0.12 0.12 0.10 0.09 0.08 0.08 0.09 0.10 0.13 0.15 0.14 0.13 0.13 0.13 0.10 0.11 0.12 0.12 0.09 0.06 0.06 0.07 0.08 0.09 0.08 0.07 0.07 0.14 0.15 0.14 0.14 0.14 0.16 0.16 0.16 0.15 0.16 0.17 0.17 0.17 0.18 0.18 0.18
0.19 0.14 0.23 0.33 0.36 0.30 0.23 0.15 0.16 0.16 0.14 0.16 0.20 0.20 0.22 0.21 0.19 0.20 0.19 0.21 0.19 0.22 0.20 0.20 0.18 0.17 0.18 0.17 0.16 0.16 0.16 0.14 0.14 0.13 0.15 0.15 0.14 0.14 0.15 0.16 0.17 0.16 0.14 0.12 0.13 0.13 0.14 0.10 0.08 0.08 0.10 0.12 0.13 0.14 0.14 0.14 0.14 0.11 0.13 0.14 0.12 0.10 0.10 0.08 0.08 0.07 0.07 0.08 0.07 0.06 0.06 0.07 0.14 0.15 0.15 0.15 0.15 0.15 0.16 0.15 0.15 0.16 0.17 0.17 0.18 0.18 0.19 0.19
0.20 0.18 0.19 0.28 0.33 0.30 0.19 0.10 0.10 0.12 0.15 0.18 0.18 0.18 0.21 0.19 0.18 0.18 0.18 0.19 0.20 0.20 0.18 0.18 0.19 0.22 0.19 0.20 0.18 0.16 0.17 0.13 0.15 0.14 0.13 0.15 0.15 0.18 0.18 0.17 0.18 0.16 0.15 0.14 0.12 0.13 0.10 0.11 0.09 0.07 0.07 0.08 0.10 0.12 0.12 0.13 0.12 0.10 0.09 0.11 0.13 0.13 0.12 0.12 0.12 0.13 0.09 0.08 0.08 0.08 0.05 0.07 0.10 0.13 0.13 0.15 0.15 0.14 0.15 0.16 0.16 0.16 0.16 0.16 0.17 0.18 0.18 0.18
0.22 0.22 0.20 0.23 0.30 0.29 0.15 0.15 0.15 0.14 0.15 0.16 0.16 0.16 0.17 0.17 0.20 0.21 0.20 0.18 0.20 0.20 0.20 0.17 0.19 0.20 0.19 0.20 0.18 0.18 0.18 0.16 0.14 0.17 0.17 0.16 0.16 0.20 0.20 0.19 0.19 0.17 0.18 0.18 0.17 0.17 0.14 0.12 0.11 0.07 0.06 0.05 0.05 0.05 0.06 0.07 0.08 0.10 0.11 0.11 0.11 0.12 0.13 0.12 0.10 0.11 0.08 0.09 0.09 0.08 0.07 0.10 0.14 0.16 0.14 0.15 0.15 0.15 0.16 0.16 0.17 0.16 0.16 0.15 0.14 0.14 0.14 0.13
0.19 0.12 0.15 0.17 0.21 0.24 0.22 0.24 0.21 0.18 0.16 0.16 0.15 0.16 0.17 0.16 0.19 0.20 0.21 0.19 0.19 0.20 0.21 0.19 0.20 0.20 0.18 0.18 0.16 0.16 0.16 0.20 0.17 0.15 0.16 0.16 0.17 0.19 0.20 0.20 0.21 0.21 0.22 0.21 0.19 0.19 0.14 0.13 0.13 0.12 0.09 0.07 0.07 0.08 0.11 0.11 0.11 0.09 0.10 0.10 0.10 0.11 0.11 0.12 0.12 0.11 0.09 0.10 0.09 0.09 0.09 0.09 0.10 0.12 0.13 0.14 0.13 0.13 0.14 0.14 0.14 0.15 0.15 0.15 0.14 0.14 0.13 0.13
0.23 0.15 0.15 0.13 0.20 0.20 0.18 0.21 0.19 0.20 0.16 0.19 0.14 0.16 0.15 0.16 0.17 0.19 0.21 0.17 0.19 0.19 0.19 0.19 0.19 0.17 0.16 0.17 0.15 0.15 0.16 0.16 0.16 0.17 0.16 0.16 0.19 0.21 0.22 0.19 0.19 0.21 0.22 0.20 0.22 0.21 0.17 0.13 0.12 0.12 0.12 0.13 0.14 0.13 0.13 0.15 0.13 0.12 0.11 0.10 0.11 0.11 0.11 0.10 0.09 0.08 0.10 0.09 0.08 0.11 0.12 0.10 0.09 0.10 0.12 0.14 0.13 0.12 0.13 0.13 0.13 0.13 0.13 0.14 0.14 0.12 0.14 0.14
0.15 0.17 0.20 0.21 0.16 0.13 0.14 0.14 0.17 0.17 0.18 0.18 0.15 0.17 0.14 0.14 0.14 0.13 0.17 0.18 0.19 0.21 0.16 0.17 0.17 0.18 0.17 0.15 0.14 0.12 0.14 0.14 0.14 0.13 0.15 0.15 0.14 0.16 0.18 0.20 0.18 0.18 0.18 0.18 0.21 0.18 0.15 0.12 0.14 0.13 0.12 0.13 0.14 0.15 0.15 0.14 0.14 0.14 0.14 0.13 0.13 0.13 0.11 0.10 0.09 0.10 0.10 0.08 0.07 0.09 0.10 0.09 0.10 0.11 0.11 0.11 0.11 0.11 0.11 0.11 0.11 0.12 0.11 0.11 0.11 0.11 0.12 0.12
0.22 0.21 0.21 0.24 0.16 0.17 0.16 0.16 0.18 0.17 0.16 0.16 0.15 0.15 0.13 0.13 0.13 0.14 0.14 0.15 0.16 0.15 0.16 0.12 0.13 0.15 0.16 0.15 0.15 0.13 0.14 0.11 0.10 0.13 0.14 0.13 0.14 0.14 0.14 0.14 0.15 0.17 0.17 0.16 0.17 0.17 0.14 0.12 0.13 0.13 0.12 0.13 0.13 0.14 0.14 0.13 0.13 0.13 0.13 0.13 0.14 0.14 0.13 0.13 0.13 0.13 0.11 0.10 0.10 0.09 0.09 0.09 0.10 0.10 0.10 0.10 0.11 0.11 0.11 0.11 0.11 0.11 0.11 0.11 0.11 0.12 0.12 0.13
0.17 0.17 0.15 0.21 0.19 0.17 0.17 0.17 0.16 0.15 0.13 0.14 0.12 0.12 0.13 0.13 0.12 0.13 0.14 0.14 0.12 0.13 0.16 0.13 0.13 0.15 0.16 0.16 0.16 0.13 0.13 0.13 0.13 0.11 0.13 0.14 0.13 0.14 0.13 0.13 0.12 0.16 0.16 0.14 0.15 0.18 0.14 0.10 0.13 0.13 0.12 0.11 0.13 0.14 0.14 0.13 0.12 0.11 0.12 0.13 0.13 0.13 0.13 0.13 0.13 0.13 0.14 0.13 0.14 0.13 0.11 0.10 0.11 0.11 0.10 0.10 0.10 0.10 0.10 0.10 0.11 0.12 0.12 0.11 0.12 0.12 0.13 0.13
0.23 0.25 0.24 0.17 0.14 0.15 0.15 0.15 0.14 0.13 0.12 0.13 0.12 0.12 0.13 0.13 0.12 0.14 0.14 0.17 0.15 0.13 0.14 0.13 0.15 0.15 0.16 0.15 0.15 0.14 0.16 0.16 0.15 0.15 0.16 0.15 0.12 0.14 0.13 0.14 0.16 0.13 0.15 0.15 0.15 0.15 0.15 0.12 0.13 0.12 0.10 0.09 0.11 0.12 0.12 0.12 0.12 0.11 0.11 0.11 0.11 0.11 0.10 0.11 0.11 0.12 0.12 0.11 0.12 0.12 0.12 0.12 0.13 0.13 0.12 0.11 0.11 0.11 0.11 0.11 0.11 0.11 0.11 0.12 0.11 0.12 0.12 0.13
0.25 0.25 0.24 0.20 0.13 0.15 0.13 0.13 0.14 0.13 0.10 0.12 0.12 0.12 0.12 0.13 0.14 0.14 0.12 0.14 0.14 0.14 0.15 0.15 0.14 0.13 0.12 0.12 0.12 0.13 0.16 0.18 0.18 0.19 0.19 0.19 0.20 0.18 0.18 0.18 0.18 0.15 0.15 0.14 0.16 0.14 0.14 0.12 0.11 0.10 0.08 0.08 0.10 0.11 0.10 0.10 0.09 0.08 0.09 0.10 0.11 0.11 0.11 0.11 0.11 0.11 0.11 0.12 0.11 0.10 0.10 0.13 0.14 0.15 0.13 0.13 0.13 0.12 0.12 0.11 0.12 0.13 0.13 0.12 0.12 0.12 0.13 0.14
Wind_Speed
20 20 20 20 20 19 19 19 19 19 19 18 18 18 18 18 19 19 19 20 20 19 19 18 18 18 18 18 17 17 17 16 16 16 16 16 17 18 18 19 21 22 24 25 26 26 26 26 26 26 26 27 27 27 27 27 27 26 26 30 34 35 36 35 35 35 33 31 30 30 29 28 27 26 26 27 28 29 27 26 26 25 26 25 25 25 23 23
21 20 20 20 20 20 20 20 20 20 19 19 19 19 19 19 20 20 20 20 21 20 20 19 18 18 18 18 17 17 17 16 17 16 16 17 17 18 18 19 19 20 22 24 25 26 27 27 27 27 27 27 28 28 28 28 28 28 27 30 33 33 34 35 36 35 34 32 31 31 30 29 29 28 26 27 28 30 29 28 28 28 28 27 26 26 26 25
21 21 21 21 21 21 21 21 21 20 20 20 19 19 19 20 21 21 21 21 21 21 20 19 18 18 19 18 18 17 16 16 17 16 16 18 18 19 19 19 19 19 20 22 24 26 27 28 27 28 28 28 28 28 29 29 29 29 29 31 31 30 31 34 37 36 36 34 32 32 32 31 31 30 28 27 27 29 28 27 28 29 31 30 28 28 28 27
22 22 22 22 22 22 22 21 21 21 21 21 20 20 20 21 21 21 22 22 22 21 20 20 19 19 19 18 18 17 17 17 16 16 17 18 19 19 19 19 19 19 20 21 23 25 27 28 29 29 29 29 29 30 30 29 29 30 31 32 30 29 31 33 35 37 38 37 35 34 33 33 32 32 32 30 28 29 28 25 25 27 30 30 29 29 29 28
23 23 23 23 23 23 23 22 22 22 22 22 21 21 21 22 22 22 22 22 22 21 20 20 19 19 19 19 18 17 17 16 15 16 17 18 19 20 20 20 20 20 20 21 22 23 25 27 29 30 30 30 30 30 31 31 31 31 32 33 31 31 32 31 33 35 36 37 37 36 35 35 34 35 36 35 34 32 31 27 24 25 26 28 29 29 29 29
24 24 24 24 24 24 24 23 23 23 23 23 22 22 23 23 24 24 23 23 22 21 20 20 20 20 20 19 18 17 17 16 16 17 18 19 20 20 20 21 20 20 21 21 22 23 24 25 27 29 31 30 31 31 32 32 33 32 33 33 33 33 33 32 31 31 32 33 35 36 35 35 36 37 38 39 40 38 37 33 28 27 27 28 29 29 29 29
24 24 25 25 25 25 25 24 24 24 24 24 23 24 24 25 25 25 24 23 22 20 20 20 20 20 20 19 18 17 17 17 17 18 19 19 19 20 20 21 21 21 21 21 22 23 23 25 26 28 30 31 32 33 33 34 34 34 33 33 34 35 34 32 30 29 29 30 32 32 33 33 35 37 37 40 41 40 41 39 34 31 30 30 30 30 30 30
25 25 25 25 25 25 26 26 25 25 25 25 24 25 26 26 26 25 25 23 21 21 20 20 20 20 20 19 18 18 18 18 18 18 19 19 19 20 21 21 21 22 22 22 22 23 23 24 26 27 28 30 31 32 33 33 34 35 34 33 34 34 33 32 30 30 29 30 30 30 32 33 34 35 36 39 39 38 38 38 37 35 33 32 31 32 31 31
25 25 25 25 25 26 26 26 26 26 26 26 26 27 27 27 27 26 25 22 21 21 21 21 20 20 20 19 19 19 18 18 19 20 20 20 20 20 21 21 21 22 23 23 23 23 24 24 25 26 26 28 30 30 31 32 32 33 34 34 35 35 34 33 33 32 31 31 31 31 32 33 33 34 36 38 38 37 36 35 36 36 36 35 33 33 32 32
25 25 25 25 25 26 26 26 26 27 27 27 28 29 29 28 28 26 24 22 21 22 21 21 21 20 20 20 19 19 18 19 20 20 20 21 21 21 21 21 22 22 23 24 24 24 25 25 25 25 26 27 28 29 31 32 32 32 33 34 35 36 35 34 34 33 33 33 32 33 34 35 34 35 36 37 38 39 38 38 37 37 38 38 36 35 35 34
26 26 26 26 26 26 27 27 27 27 28 28 29 30 30 29 28 26 24 23 22 22 22 22 22 21 20 20 20 20 19 20 20 20 21 21 21 21 21 22 22 22 23 24 24 25 25 25 25 26 25 26 28 29 30 31 31 32 33 35 35 36 36 36 37 36 35 34 35 34 35 37 36 38 38 36 37 38 38 38 39 39 39 39 39 38 38 37
26 27 27 27 27 27 28 28 28 28 28 29 30 30 30 29 28 25 24 23 23 23 23 23 22 21 21 21 21 21 21 21 22 21 22 21 21 21 21 22 22 22 23 23 24 24 24 25 26 27 26 26 27 28 29 29 30 32 33 35 36 37 38 39 38 38 37 36 35 34 36 39 39 40 40 38 38 37 37 37 37 39 39 40 40 40 40 39
27 27 27 28 28 28 29 29 29 29 29 30 31 31 30 29 27 25 23 23 23 24 24 24 23 22 22 22 22 22 22 23 23 22 22 22 22 22 22 22 22 22 23 23 24 24 25 25 26 27 27 27 27 26 27 28 28 31 32 34 35 37 39 40 39 39 38 37 35 34 38 41 39 39 39 40 41 40 39 38 37 38 38 39 40 41 41 40
28 28 28 28 29 29 29 30 30 30 30 31 31 31 30 29 27 25 24 24 24 25 26 24 23 22 23 23 23 23 24 24 24 23 23 22 22 22 22 22 22 23 23 24 24 24 25 25 26 27 27 28 28 27 27 28 28 29 30 31 33 35 37 37 38 39 38 38 37 36 40 42 37 36 37 37 40 42 40 38 38 38 38 38 38 39 40 41
28 28 29 29 30 30 30 31 31 31 31 32 32 32 31 29 28 26 26 25 25 27 27 25 23 23 24 24 23 24 25 24 24 24 23 23 22 23 22 22 23 23 23 24 24 24 24 24 25 26 26 28 28 28 28 29 29 28 29 30 31 33 34 33 35 37 37 37 37 37 40 40 37 36 37 36 37 40 40 37 37 38 38 39 38 38 39 41
29 29 29 30 30 30 31 31 32 32 32 33 33 33 31 29 28 27 26 25 26 29 27 25 24 24 25 25 24 24 24 24 24 25 24 24 24 25 24 24 24 24 24 24 24 24 24 24 24 25 26 26 27 28 28 29 29 29 30 30 30 31 32 31 32 35 36 36 37 40 39 37 34 34 35 35 36 38 38 37 37 36 37 39 38 38 37 38
29 29 30 30 31 31 31 32 32 33 33 33 34 33 31 29 27 27 25 25 28 30 27 26 26 26 27 26 25 25 25 25 26 26 26 26 26 26 26 26 25 25 25 24 24 24 24 24 24 25 25 25 26 26 27 29 29 29 30 31 31 31 31 30 30 32 34 34 36 40 41 39 35 33 33 34 34 34 36 37 36 35 35 37 37 37 37 37
30 30 30 31 31 32 32 32 33 33 33 34 34 33 31 28 27 26 25 27 31 29 27 27 26 28 28 26 27 27 27 28 28 28 29 28 28 27 27 27 27 26 26 25 25 25 24 25 25 25 25 25 26 27 28 28 27 27 29 30 31 31 32 31 30 31 33 34 35 37 40 40 39 37 36 35 34 34 36 36 37 37 36 36 37 38 38 38
31 31 31 31 32 32 33 33 34 34 34 34 34 32 29 28 28 25 26 31 31 28 28 28 27 29 30 30 31 31 30 30 30 30 30 29 28 28 28 28 27 27 27 26 25 25 25 24 25 25 25 26 27 28 29 28 26 26 27 29 29 29 30 30 29 30 31 32 34 35 37 38 38 40 39 39 38 38 39 39 38 38 38 38 38 38 38 39
31 32 32 32 33 33 33 34 34 34 34 33 33 32 29 30 29 27 30 33 30 29 31 31 31 33 33 33 33 33 32 32 32 31 29 29 28 28 28 28 28 28 28 27 25 25 25 25 26 26 26 26 27 28 29 29 29 27 27 29 29 29 29 28 27 29 29 31 33 34 35 36 37 39 39 40 40 41 41 41 41 41 40 40 40 40 40 39
32 32 33 33 34 34 34 34 34 33 33 32 32 31 29 30 30 31 34 34 32 32 34 33 34 35 35 35 34 34 33 32 31 30 29 29 28 28 28 27 27 27 27 27 25 25 25 26 26 26 27 27 26 27 27 28 29 28 28 29 30 30 30 29 29 30 29 31 33 33 35 37 37 38 38 39 41 42 42 42 43 43 43 43 43 43 42 42
32 33 34 34 34 34 35 35 34 33 33 31 31 31 30 31 32 34 35 35 35 35 34 33 34 34 34 34 33 31 30 29 29 28 27 27 27 27 27 26 27 26 26 27 26 25 26 27 28 27 26 26 25 26 27 27 28 28 28 29 30 30 30 31 31 31 31 31 33 34 36 38 38 38 39 39 40 41 42 43 44 44 44 44 44 44 44 43
33 34 34 34 35 35 35 35 34 33 33 32 31 32 33 34 35 36 35 36 37 35 32 32 32 32 31 29 27 26 25 26 25 24 24 25 26 27 27 26 27 27 25 26 26 26 26 26 26 26 24 25 26 27 27 28 28 28 29 29 29 29 29 29 30 30 31 32 33 33 35 37 37 38 39 39 40 40 40 41 42 43 43 44 44 44 44 44
34 34 34 35 35 36 36 35 33 32 33 32 31 32 34 36 36 37 36 36 37 35 32 31 29 28 26 25 23 22 23 23 22 21 21 22 23 24 26 26 26 27 26 26 27 28 28 26 24 25 25 26 27 27 27 28 28 28 29 29 29 29 28 28 28 28 30 32 33 33 35 37 37 38 38 37 38 38 38 39 39 40 41 41 42 43 44 45
35 35 35 36 36 36 37 35 32 33 34 32 32 34 36 36 37 37 36 36 36 34 30 28 26 25 23 22 20 20 21 22 21 19 19 21 21 22 23 24 25 26 27 27 27 28 29 27 25 26 27 27 28 28 28 28 27 28 29 30 30 29 28 28 28 28 29 32 33 33 33 34 33 34 35 34 34 36 36 36 37 38 38 39 40 41 42 43
36 35 36 36 37 37 36 33 33 35 35 32 33 36 37 37 37 37 36 35 34 31 28 26 25 23 21 20 20 20 21 21 20 19 19 19 20 20 22 23 23 24 25 26 27 27 28 27 26 27 28 28 28 28 28 28 28 28 28 28 29 29 28 28 28 29 29 30 29 29 32 33 31 31 32 32 32 34 34 34 35 35 36 37 36 36 36 37
36 36 37 37 37 38 36 34 35 36 35 34 35 37 38 37 37 36 34 32 31 28 26 25 24 22 21 21 21 21 20 20 19 19 19 19 20 20 21 22 22 23 24 24 26 27 27 27 27 27 28 28 28 28 28 28 28 29 27 25 26 28 28 29 29 30 30 30 30 31 32 34 35 36 35 34 34 35 35 34 33 33 34 34 32 31 31 32
37 37 37 38 38 38 36 36 36 36 36 36 37 38 38 37 36 34 31 29 28 27 25 24 23 23 22 21 21 22 21 20 20 20 19 19 20 20 21 23 23 24 24 24 27 26 25 26 27 27 28 28 29 28 28 28 29 29 27 26 27 27 28 28 29 29 30 31 32 33 32 33 36 36 34 33 34 35 35 35 34 33 33 31 30 30 30 31
38 38 38 39 39 38 36 37 38 37 36 37 39 39 38 36 35 32 28 27 27 27 25 24 24 23 22 22 23 23 23 22 21 20 20 20 21 20 21 22 23 24 24 25 28 27 26 26 26 27 29 29 29 29 29 29 29 28 27 28 28 28 28 28 28 30 30 31 33 34 32 32 34 34 32 33 34 35 35 34 34 33 31 30 30 30 30 30
39 39 39 40 39 37 37 38 38 37 37 38 39 39 37 36 33 29 26 26 27 26 26 25 24 23 22 23 24 23 23 23 22 21 22 22 22 22 22 22 23 23 24 26 28 29 28 27 27 29 30 30 29 29 29 29 28 27 27 28 28 29 29 29 29 29 30 32 36 36 33 32 33 33 33 34 33 33 33 32 32 31 29 29 29 29 29 30
40 40 40 40 39 38 38 38 37 38 39 39 39 38 36 34 30 26 25 27 27 27 25 24 23 23 23 24 24 23 24 24 23 22 23 23 23 24 24 24 23 24 26 28 30 31 30 30 30 30 31 30 30 30 30 29 29 28 28 29 28 28 28 28 30 30 30 33 35 34 33 34 35 33 32 32 33 33 33 32 32 30 29 29 29 29 29 30
41 41 41 41 40 39 39 39 39 40 40 39 38 37 34 32 29 26 26 27 27 25 25 24 24 25 26 26 27 26 25 26 25 24 25 25 26 26 26 26 25 24 26 27 28 29 30 32 31 29 30 30 30 30 30 29 30 30 30 29 27 27 27 28 29 30 31 34 33 30 31 33 36 36 34 33 31 32 32 30 30 30 29 29 29 29 29 29
42 43 42 42 41 40 40 41 41 41 40 38 37 35 32 29 28 27 27 27 26 26 27 27 27 28 27 28 29 27 27 27 26 26 27 27 28 29 29 29 27 27 28 27 26 27 27 29 29 29 29 30 30 30 30 30 31 31 31 30 28 27 27 28 29 29 30 33 34 31 30 31 34 36 38 37 33 30 29 28 29 29 29 28 28 28 29 29
44 44 43 42 41 41 41 41 41 40 39 37 35 33 30 29 29 29 29 29 29 29 29 29 29 29 29 30 30 28 29 29 27 27 28 28 29 30 30 31 31 30 30 29 29 29 29 29 28 29 29 29 31 32 31 30 30 32 32 31 31 30 29 29 29 29 29 29 30 30 30 30 30 30 32 33 31 29 28 28 28 28 28 28 28 29 30 30
45 44 43 42 41 41 41 41 40 38 37 35 34 32 30 30 31 31 31 31 31 30 30 30 30 31 33 33 32 31 31 31 29 28 29 30 30 31 30 30 31 30 29 29 29 29 31 32 30 29 28 28 30 31 29 28 29 30 29 30 33 33 31 30 29 29 27 27 27 28 30 30 29 28 27 27 28 28 29 29 29 29 29 29 29 30 30 30
46 45 43 42 42 42 41 40 39 37 36 34 33 33 33 34 33 32 31 32 32 32 32 33 33 33 35 34 33 33 32 31 30 30 31 32 33 33 33 31 31 31 30 30 29 27 29 31 29 29 30 30 31 30 29 29 28 28 29 31 32 30 29 29 31 31 29 29 31 31 31 32 31 32 32 31 31 32 31 32 32 31 30 30 29 30 30 30
46 45 45 44 43 42 41 40 38 37 36 34 35 36 36 37 36 35 34 34 34 34 34 36 34 33 35 35 34 33 31 31 31 31 32 32 33 34 34 33 31 32 33 32 31 30 30 31 30 30 30 31 30 29 30 31 29 27 30 32 29 28 28 28 29 29 29 30 33 33 34 34 33 33 34 33 33 34 34 33 33 32 31 30 29 30 30 30
47 47 46 44 42 40 39 39 38 37 35 35 38 40 39 39 38 38 37 37 36 36 36 38 36 34 37 37 36 33 32 33 32 33 34 33 33 34 33 33 33 33 33 32 32 31 29 30 32 32 31 30 29 28 30 32 32 30 30 30 29 28 29 29 29 29 29 30 31 33 35 36 35 34 33 33 34 34 34 34 33 33 31 30 30 30 30 30
47 46 44 41 40 39 39 38 37 36 36 37 40 41 41 42 42 41 40 40 39 38 39 40 39 39 40 40 38 36 34 35 34 34 34 34 34 34 32 32 33 32 32 32 33 32 29 29 30 31 31 30 29 31 32 32 33 31 30 30 31 31 29 29 30 30 29 30 30 31 33 33 34 34 34 35 35 34 34 33 33 33 32 31 30 30 30 30
46 45 43 41 41 41 40 39 38 37 38 40 42 43 43 43 43 42 42 41 41 40 41 42 41 41 42 41 40 38 37 37 37 37 36 35 35 34 32 31 31 31 31 31 33 33 31 31 31 30 30 30 31 34 35 34 33 32 32 32 32 32 30 29 30 31 29 29 29 30 32 31 30 31 32 33 33 33 33 32 32 32 31 31 30 30 31 31
46 45 44 42 41 41 40 40 40 39 41 44 45 46 46 46 46 45 45 44 44 43 43 43 43 43 42 42 41 39 37 38 38 38 38 38 37 34 32 31 30 30 30 31 32 32 32 32 33 31 31 34 35 35 34 34 33 34 35 35 34 33 32 30 31 32 31 31 30 30 32 31 30 29 29 29 30 32 32 31 32 31 30 30 31 31 32 33
46 45 44 43 42 42 41 43 43 42 44 46 46 47 47 47 47 47 46 46 45 44 44 44 44 44 43 42 42 40 39 38 38 38 38 38 37 35 33 31 31 31 31 32 33 33 32 33 34 35 35 36 36 33 32 32 32 33 34 35 35 34 34 33 33 33 32 33 33 31 31 31 30 29 28 28 29 30 31 31 31 31 31 31 32 33 34 34
47 48 48 46 46 44 44 46 46 45 47 49 49 49 49 48 48 47 47 46 44 43 43 43 43 43 41 41 41 40 39 39 38 38 38 37 37 36 35 33 33 33 33 34 34 34 34 34 35 36 36 36 35 32 32 31 31 34 35 35 35 37 37 36 34 32 30 30 31 31 32 33 32 31 30 29 29 30 31 31 31 31 32 33 34 35 35 35
49 51 51 49 47 45 45 47 47 48 49 49 50 50 49 48 48 47 47 46 43 42 41 42 42 40 39 38 38 39 38 37 38 39 38 37 36 36 36 36 35 34 33 33 32 31 32 33 34 34 33 33 33 33 34 34 34 36 36 35 36 37 37 35 33 32 31 32 32 30 31 31 30 31 31 30 30 31 32 32 32 33 34 35 36 36 37 37
50 51 51 49 47 46 48 48 48 50 50 50 51 50 49 49 48 47 47 46 44 42 41 42 40 38 38 38 37 38 37 36 35 35 35 35 35 34 34 34 34 33 33 34 34 32 32 33 33 33 33 34 34 34 35 36 36 36 36 37 36 36 35 34 33 33 33 35 36 34 32 30 28 28 29 29 30 31 32 33 34 35 35 36 37 38 39 39
49 50 50 49 48 48 50 50 48 49 49 49 50 49 49 49 48 47 46 46 45 43 41 41 40 38 37 37 37 37 36 36 35 34 34 34 33 32 30 29 30 31 31 32 33 32 32 34 35 35 35 35 34 32 32 32 33 35 37 38 39 38 37 35 35 36 35 35 38 39 36 35 34 32 30 29 30 32 32 32 34 35 36 37 38 38 39 39
48 49 50 49 48 48 49 48 47 48 48 49 49 48 49 50 49 46 44 43 42 41 40 40 39 37 36 36 36 36 36 35 34 34 34 34 32 30 28 27 27 28 28 28 29 29 31 34 36 37 38 37 35 34 31 29 30 32 34 35 37 38 39 38 39 40 38 36 38 38 36 38 40 38 35 34 34 34 34 34 36 37 37 37 37 37 37 38
49 50 50 49 48 49 49 49 49 50 51 51 50 50 52 52 50 47 44 42 41 40 37 38 38 37 36 36 36 36 36 35 34 32 32 31 30 29 28 28 29 29 28 27 27 27 29 31 33 35 37 37 36 35 34 32 32 32 31 32 34 35 37 39 39 40 39 38 39 38 38 40 40 38 38 38 38 38 37 38 38 38 38 38 37 37 37 38
50 51 52 49 49 51 53 53 53 53 53 52 51 52 52 52 51 47 44 42 42 40 38 39 41 38 37 38 36 35 36 35 35 33 32 32 31 30 30 31 31 30 29 28 27 27 28 30 31 31 33 34 35 34 34 35 35 34 33 33 34 34 35 36 37 37 38 39 39 39 42 43 40 38 40 40 39 38 38 38 38 38 38 38 37 36 37 38
51 51 52 50 51 54 55 55 53 53 52 50 51 50 49 49 48 45 41 40 40 39 36 38 40 37 36 37 36 37 37 36 37 36 34 34 34 32 32 32 30 29 29 28 28 28 29 30 30 30 30 32 34 34 34 35 35 36 36 36 36 36 36 36 36 36 36 37 38 39 42 42 39 39 41 41 40 40 40 40 40 40 40 40 39 38 39 39
53 53 53 51 51 53 55 53 51 52 51 49 49 48 46 45 44 42 41 39 38 38 36 35 36 34 33 35 35 36 36 35 37 37 36 36 35 32 31 30 29 29 29 29 29 29 30 30 29 28 30 32 32 32 34 34 35 36 38 38 38 37 37 36 36 36 36 36 37 38 39 38 36 37 39 39 39 39 39 40 41 42 42 42 41 41 41 41
55 55 54 53 52 53 54 53 51 51 51 48 47 46 45 44 43 42 42 39 38 39 37 36 37 36 36 37 36 35 34 34 35 35 34 34 33 32 31 31 30 29 29 28 28 28 28 29 28 28 29 31 31 32 33 32 33 35 36 37 38 38 38 39 39 39 39 37 37 38 38 37 36 36 37 37 37 37 38 38 39 40 41 41 41 41 41 41
Wind_Direction
359 357 355 353 351 349 347 345 343 341 338 335 333 330 328 326 324 323 321 319 317 315 313 311 307 305 303 300 297 293 289 281 276 273 266 264 263 262 263 262 259 255 252 249 245 245 243 241 240 237 236 236 236 235 232 233 231 230 231 233 235 234 233 232 232 232 234 235 234 233 231 231 233 232 231 232 231 230 230 228 229 228 227 225 221 221 220 220
358 357 355 353 351 349 347 345 343 341 339 336 333 331 328 326 325 323 321 319 317 315 313 310 307 305 303 301 297 293 287 279 275 271 265 265 265 264 265 265 262 258 255 249 246 245 243 242 239 236 236 236 236 234 232 233 233 233 233 233 235 235 236 235 236 235 236 236 233 233 232 230 232 233 231 231 230 228 228 228 228 228 228 226 223 223 222 221
356 355 354 352 351 349 347 345 344 342 340 337 334 331 329 326 324 322 321 319 317 315 313 310 307 306 304 301 298 294 286 280 276 268 265 267 266 266 266 266 263 261 257 252 248 246 244 243 240 238 237 237 236 232 233 233 233 237 236 235 236 236 237 237 238 238 238 239 236 235 234 231 231 233 233 232 232 230 228 228 229 229 228 226 224 224 224 222
357 355 353 352 350 349 347 346 344 342 341 338 335 333 330 327 324 322 320 318 316 314 312 309 307 305 303 301 298 294 286 280 275 267 268 269 267 267 267 266 264 262 259 255 251 247 245 243 241 240 239 240 236 232 234 233 233 237 236 238 238 236 237 237 237 239 240 241 239 235 234 233 232 233 235 236 235 232 230 231 231 231 229 226 225 225 225 224
357 356 354 352 351 349 348 346 345 343 341 339 337 335 331 328 326 323 320 318 316 313 311 308 307 305 303 300 297 294 287 282 275 271 273 272 270 268 267 266 264 262 259 256 253 250 247 243 242 241 241 241 238 235 236 233 233 238 237 240 241 238 239 239 238 238 238 239 238 236 234 233 233 234 235 236 234 231 232 232 231 231 229 225 225 226 226 225
356 355 354 352 351 349 347 346 344 342 341 339 337 335 331 329 327 324 322 319 316 313 310 308 307 305 302 300 296 291 286 283 279 277 276 274 272 269 267 265 263 263 260 258 255 252 249 245 242 241 241 242 240 238 238 234 233 238 239 239 240 240 241 241 240 238 235 236 236 236 236 235 234 234 235 236 236 234 236 236 233 230 228 226 226 226 227 227
354 353 351 350 349 347 346 344 343 341 340 339 336 333 330 328 326 324 322 319 316 313 311 309 307 305 303 300 294 288 284 282 280 280 279 276 273 270 268 266 264 263 262 260 256 252 250 247 243 242 242 242 242 241 239 236 233 237 240 239 240 240 240 240 238 237 237 236 237 236 236 237 236 235 235 236 237 236 237 237 235 232 229 227 227 228 228 228
352 350 349 348 347 346 344 342 341 339 338 338 335 332 330 328 326 324 321 318 315 312 311 310 307 305 303 300 295 289 283 281 280 281 281 278 275 272 269 267 264 263 263 261 257 255 253 249 245 244 244 242 243 243 241 238 236 238 240 240 242 242 241 240 238 238 239 238 238 238 236 237 237 238 237 236 237 236 236 236 234 232 230 228 227 228 229 229
350 349 347 346 345 344 342 341 339 337 336 336 334 331 330 328 326 324 321 317 314 312 310 309 306 304 302 299 295 291 287 283 282 282 282 279 276 273 270 267 265 264 263 261 258 255 252 249 247 246 246 245 245 245 241 239 239 240 241 241 241 242 242 241 240 239 241 240 238 239 239 238 238 239 238 236 236 236 236 237 235 233 233 232 230 230 231 231
348 347 346 345 343 342 341 340 338 337 336 335 333 331 329 327 325 323 320 317 314 312 310 308 305 302 300 297 294 293 291 287 285 284 283 280 277 274 271 268 267 265 264 262 259 256 253 252 251 249 248 247 245 245 243 240 241 243 244 244 243 243 242 242 242 242 243 243 240 239 240 240 239 239 238 235 236 236 237 238 238 237 236 235 235 235 235 235
345 344 343 343 342 341 340 339 338 337 335 334 333 331 330 327 325 323 320 317 315 314 311 308 305 300 298 295 292 292 291 289 288 287 285 281 278 275 272 270 269 266 264 262 260 258 256 255 253 250 247 247 246 245 244 242 243 245 245 246 245 244 244 242 243 243 243 243 241 241 243 242 239 238 237 236 236 236 236 238 239 240 239 238 238 238 237 237
342 341 341 340 339 339 338 337 336 336 335 333 332 331 330 328 326 323 320 318 316 315 313 310 305 300 297 294 290 290 290 289 289 288 285 282 278 275 273 271 269 267 265 263 261 259 257 254 252 249 247 249 247 244 245 245 245 246 245 245 245 245 244 241 241 241 241 241 241 244 247 243 239 239 238 238 239 238 237 237 238 239 240 239 239 238 238 237
339 339 338 337 337 336 336 335 334 334 333 332 331 330 329 327 325 323 320 318 318 317 314 310 306 301 297 295 291 290 290 289 288 287 285 283 280 276 274 272 269 267 265 263 261 260 256 254 252 249 249 249 247 245 247 247 247 246 244 244 244 245 244 241 240 239 239 240 239 241 246 243 240 241 240 238 238 238 237 237 237 238 238 238 238 237 236 236
336 336 335 335 334 334 334 333 333 332 331 331 330 329 328 325 323 320 318 316 317 318 315 310 305 300 296 295 294 291 289 289 287 286 285 283 281 277 274 272 269 267 265 263 262 259 256 255 252 250 250 248 248 249 248 246 246 245 245 244 243 244 245 242 239 237 239 240 235 236 244 244 242 242 241 240 237 237 237 237 237 238 238 238 237 236 236 235
334 334 333 333 332 332 333 332 331 330 330 329 328 327 326 324 321 319 315 313 315 317 315 309 304 300 297 295 294 291 289 288 286 285 284 281 280 277 274 273 270 267 265 263 262 259 256 253 251 250 249 247 248 249 248 246 245 244 245 244 242 243 246 245 240 236 237 239 234 234 242 245 243 242 241 243 239 235 236 237 237 237 238 239 238 237 237 237
333 332 332 331 331 331 331 330 330 329 328 328 327 326 324 322 320 318 314 310 313 316 313 308 304 300 298 297 294 291 289 286 285 284 282 279 278 277 275 273 270 267 265 262 261 258 255 253 252 251 250 248 246 247 247 248 247 245 244 245 244 243 245 245 241 236 236 238 235 235 241 243 243 241 242 245 242 236 236 237 238 238 237 238 238 238 238 238
332 331 330 330 329 329 329 329 328 328 327 327 326 325 323 321 319 318 314 312 314 314 310 307 305 301 298 297 294 291 288 285 284 282 280 278 277 276 274 272 269 266 264 262 259 257 253 252 251 251 251 249 248 246 246 247 246 245 244 244 245 244 244 243 240 238 237 237 237 238 240 242 242 240 239 241 242 240 239 239 239 239 238 238 237 238 238 238
330 330 329 329 328 327 327 327 327 327 326 326 326 325 322 320 319 317 315 314 314 311 307 306 305 302 299 297 295 293 290 287 285 282 278 276 275 274 272 270 268 265 263 260 257 254 252 251 251 250 249 248 247 244 243 244 244 245 245 244 245 245 244 243 241 240 237 236 238 239 241 242 243 242 239 238 239 240 241 241 240 240 240 239 238 238 238 239
328 328 328 327 327 326 326 326 326 326 325 325 326 324 321 320 319 316 315 317 315 310 308 306 303 302 301 298 295 293 290 286 285 281 276 273 271 271 269 267 266 263 261 259 254 250 250 251 249 249 248 246 245 244 245 246 247 250 249 247 247 246 244 243 243 241 237 238 239 240 242 243 242 242 241 239 239 240 241 242 241 241 241 240 239 239 239 239
327 327 326 326 326 325 325 325 325 325 325 325 326 324 321 321 317 313 314 315 312 307 305 303 300 300 299 298 296 294 289 285 282 279 274 271 269 269 266 263 262 261 260 258 253 249 249 249 249 248 248 246 245 245 246 248 250 253 252 249 249 247 246 244 243 241 239 241 242 242 243 243 242 242 242 242 243 242 242 242 241 241 242 242 241 241 241 240
326 325 325 325 324 324 323 324 323 324 325 324 326 325 322 320 315 312 313 311 307 304 301 300 299 298 297 296 295 293 290 285 280 276 272 269 267 266 263 259 259 258 256 255 253 250 248 249 250 248 247 248 247 246 246 248 250 251 250 250 249 247 246 246 244 243 242 242 244 245 245 245 245 245 245 245 245 244 243 243 243 243 243 244 244 243 243 242
325 324 324 323 323 323 322 322 322 322 323 322 324 325 321 319 315 313 312 308 306 306 302 300 299 297 297 295 292 291 289 285 280 275 272 267 264 263 258 255 256 256 252 251 251 249 249 250 250 248 248 249 249 247 247 248 248 249 249 249 249 248 247 248 248 245 244 244 246 247 247 247 247 247 246 246 246 246 245 245 245 245 245 244 245 244 244 244
323 323 323 323 322 322 321 321 320 320 321 321 321 321 319 318 316 314 311 308 307 307 304 302 300 299 298 296 292 289 287 286 282 276 272 267 263 260 257 255 254 253 250 248 249 248 249 249 247 247 248 248 248 248 248 248 248 248 248 247 248 248 246 248 248 246 246 246 247 248 249 248 248 248 247 246 246 246 246 246 246 246 246 245 245 245 245 245
322 322 322 322 321 321 321 319 318 319 319 319 318 318 318 317 316 314 311 308 307 309 308 305 302 299 297 297 294 289 289 290 287 281 273 267 264 260 258 257 254 252 249 247 248 248 248 249 246 246 247 247 249 250 248 248 248 247 246 246 248 247 245 246 247 247 249 249 248 250 251 250 247 247 247 246 245 245 246 246 246 245 246 246 245 245 245 245
322 321 321 321 320 320 320 317 317 318 318 317 316 317 317 316 316 315 312 310 308 310 311 306 303 301 298 298 295 292 292 291 289 285 276 269 267 264 260 257 255 253 250 248 248 249 249 250 246 244 246 247 248 250 247 246 248 248 247 245 246 246 245 246 248 249 251 252 249 246 248 250 245 243 243 242 242 243 244 244 245 245 245 245 245 244 244 244
321 320 320 320 319 319 318 316 316 317 316 315 315 316 316 315 315 314 312 310 309 311 312 306 303 301 298 297 294 294 295 292 289 285 278 273 268 265 263 258 256 255 253 250 249 249 249 249 247 247 248 247 247 249 248 246 247 249 249 247 245 244 244 245 247 249 249 251 250 243 245 249 246 243 242 240 241 243 244 244 245 244 243 243 242 242 241 241
320 319 319 319 319 319 317 314 314 315 315 313 314 315 315 315 315 314 313 310 309 311 311 306 303 300 298 297 293 293 294 292 289 283 278 276 269 265 265 261 258 256 255 253 250 250 249 247 247 248 247 246 246 248 248 246 246 248 249 249 247 244 245 245 246 248 248 251 251 247 246 250 249 248 245 242 243 245 246 246 245 244 243 241 240 239 239 240
318 318 318 317 317 317 314 313 313 313 313 312 313 314 314 314 313 313 312 309 309 311 309 305 303 300 298 297 291 291 293 290 288 284 278 275 271 267 265 263 261 259 255 251 250 252 251 247 246 245 245 246 247 249 248 246 246 247 246 247 248 247 248 248 247 248 250 251 251 247 246 250 251 249 246 242 242 245 246 246 246 245 242 240 240 240 240 241
317 317 316 316 316 315 313 311 311 311 311 311 312 312 313 313 311 311 308 306 308 309 307 305 302 299 297 296 291 289 290 288 285 284 279 274 271 269 268 266 265 263 259 255 253 254 253 251 250 248 247 248 249 250 249 247 246 246 246 247 249 250 250 250 249 248 251 250 248 246 245 249 252 249 245 244 243 245 245 245 245 243 240 238 239 240 240 241
316 316 315 315 315 314 312 310 310 311 311 311 311 311 311 310 310 309 304 303 306 306 305 303 300 298 295 294 292 288 288 286 284 282 278 275 271 269 269 268 267 265 263 261 258 256 256 255 254 252 250 252 253 252 251 248 245 244 247 248 249 250 250 250 250 249 251 250 248 246 243 247 252 249 244 245 245 243 243 242 241 240 238 238 240 241 242 243
315 314 314 314 313 312 311 309 309 310 311 310 310 310 308 308 308 305 301 303 305 303 303 301 298 297 294 293 292 289 289 285 282 279 276 275 272 268 268 267 267 266 264 262 261 259 258 256 255 254 253 253 253 252 250 249 246 245 246 246 248 250 250 250 249 247 249 250 249 247 242 243 248 248 245 246 246 243 242 241 239 239 240 240 241 242 242 242
315 314 313 312 311 310 309 307 308 309 309 309 309 308 307 307 305 299 299 305 305 301 302 299 297 296 294 294 292 289 288 284 279 276 273 272 270 267 265 264 264 265 263 262 262 261 257 255 254 254 252 249 249 249 248 248 247 245 244 243 246 249 249 249 248 247 249 251 250 246 242 244 246 247 247 249 249 244 241 240 237 238 241 241 241 241 242 243
314 314 312 311 310 309 307 305 306 307 307 308 307 306 306 305 302 299 298 300 300 299 299 298 297 295 293 292 290 288 287 284 278 275 273 270 269 267 264 262 261 262 263 263 263 262 261 258 253 251 251 247 245 246 246 246 245 243 242 241 241 245 247 247 247 249 250 251 251 245 243 248 249 249 247 247 247 244 242 240 236 236 238 238 239 241 243 244
313 313 312 311 309 308 306 305 305 305 305 305 305 304 303 299 300 300 297 295 296 297 296 295 295 293 290 289 287 286 285 282 278 275 273 270 269 268 265 262 260 261 264 263 262 261 261 261 253 249 251 247 245 247 247 247 245 243 244 242 241 242 245 247 248 249 251 253 252 245 242 247 248 249 247 241 240 241 242 240 237 238 238 237 241 244 244 245
313 312 311 310 309 307 305 304 304 304 303 302 302 301 298 296 299 300 297 296 296 295 295 294 292 289 288 287 286 284 281 280 277 274 271 269 268 268 267 264 260 258 260 260 261 259 258 259 254 250 254 247 244 248 247 246 246 246 244 243 243 244 246 251 252 249 249 252 250 244 243 246 246 248 246 240 239 241 242 242 240 241 241 242 245 245 244 245
313 312 311 310 308 306 304 303 303 302 300 300 299 296 295 296 298 298 298 298 296 295 295 293 290 288 288 287 285 282 280 278 276 274 272 270 269 267 266 266 261 256 255 256 260 260 258 261 256 252 256 249 244 246 245 244 247 247 243 241 245 248 247 251 254 251 249 250 248 244 246 248 249 250 247 244 245 245 245 246 244 243 244 245 246 244 245 247
313 312 311 309 308 306 303 302 301 299 297 296 294 294 296 297 297 296 296 297 295 294 292 290 289 287 286 286 285 283 281 278 275 272 271 271 270 268 265 266 262 256 255 256 259 260 259 263 259 252 254 252 248 249 248 246 246 246 244 244 246 249 247 248 251 251 249 250 249 246 247 248 248 251 249 245 245 245 246 246 245 245 245 245 245 245 246 248
312 311 310 309 309 307 304 301 299 297 296 294 291 292 296 297 296 296 295 295 294 292 289 287 287 285 284 285 284 282 278 276 274 271 271 270 270 268 265 266 263 257 255 256 258 260 259 261 260 254 251 251 250 250 250 248 246 245 248 247 245 247 247 245 247 249 248 251 251 248 248 248 247 250 249 245 244 244 244 244 244 246 246 246 246 246 247 248
312 311 310 311 311 309 306 302 299 296 294 293 291 292 296 296 296 295 294 293 292 290 287 286 286 284 283 283 283 282 277 274 273 271 271 269 269 269 267 265 265 260 256 254 256 259 258 258 260 257 253 252 250 247 246 246 247 246 249 248 245 246 247 245 245 248 248 250 252 250 249 249 249 250 247 244 244 243 242 243 244 245 245 246 247 247 249 249
312 311 310 311 309 308 306 302 298 295 293 293 292 293 296 297 295 293 292 291 291 289 287 286 285 284 283 282 281 280 277 274 273 271 270 269 269 270 268 265 265 262 259 256 256 257 255 255 257 258 255 250 248 247 246 246 245 243 244 244 243 244 247 249 249 247 247 250 251 252 251 250 251 251 247 243 244 242 241 242 244 245 245 245 247 248 249 251
312 310 309 310 308 307 305 301 298 296 293 293 293 293 293 294 294 293 291 290 289 287 286 285 284 283 283 282 281 280 277 275 273 270 269 268 267 268 268 267 265 262 260 259 256 255 254 254 254 254 252 248 249 251 250 248 245 243 242 242 242 242 244 249 250 246 247 249 249 251 254 252 252 252 249 245 244 243 241 242 244 245 245 246 248 249 250 252
310 308 309 310 308 306 304 300 299 296 293 293 293 293 293 293 293 293 292 290 288 287 285 284 283 282 281 280 279 279 277 275 272 270 269 266 265 265 266 267 263 259 258 258 256 254 255 256 254 252 251 250 252 252 251 250 247 246 246 243 242 242 241 244 248 248 248 249 250 252 254 252 250 251 249 247 245 242 241 242 245 246 246 246 248 249 251 252
308 307 308 307 305 304 302 300 299 296 293 294 294 292 292 293 292 292 292 290 288 287 285 284 283 281 279 278 277 275 275 273 271 269 269 267 265 264 264 263 261 259 259 259 258 255 254 254 253 254 254 253 251 251 251 250 247 246 246 245 243 243 243 245 249 250 249 247 247 250 251 249 249 250 250 248 246 244 243 244 245 246 248 248 249 250 251 252
307 306 307 306 303 300 300 300 300 297 295 295 294 292 292 292 291 291 290 290 288 287 286 285 283 281 279 279 276 274 273 272 269 268 267 267 267 265 263 261 259 258 258 258 257 256 253 251 250 251 252 250 247 247 248 247 246 246 246 246 245 244 245 246 249 250 250 247 245 248 250 249 250 251 251 249 247 246 246 246 246 248 250 250 251 252 253 253
308 307 308 306 302 298 298 300 300 298 297 295 294 293 292 292 291 290 289 289 287 286 285 284 283 281 279 278 275 273 271 269 269 269 267 267 268 266 265 264 262 258 257 256 255 255 254 251 247 246 247 246 245 246 247 247 247 247 247 246 246 244 243 244 246 247 247 246 245 246 248 249 250 249 248 246 246 247 248 248 249 251 252 253 254 255 255 255
308 308 309 308 304 299 298 298 297 297 297 296 295 294 293 293 293 291 289 288 287 285 283 283 282 280 278 276 274 273 271 268 268 268 267 267 267 266 266 266 264 261 261 260 257 254 253 251 248 247 247 248 249 250 251 249 247 246 245 244 244 244 243 243 244 245 246 247 247 246 247 249 249 248 247 246 246 248 250 250 251 253 255 256 257 257 256 257
307 307 309 309 306 303 301 300 298 297 298 297 296 296 294 294 294 293 289 287 287 286 283 282 280 277 275 274 273 273 271 269 268 267 268 267 266 265 263 259 258 261 263 262 257 253 251 251 250 249 249 250 251 252 251 250 248 248 247 245 244 243 243 243 244 245 247 248 248 247 246 248 248 247 248 250 251 251 253 254 255 257 258 259 260 259 257 257
307 306 307 306 304 303 303 301 299 298 297 296 295 295 294 293 293 292 290 288 286 284 282 281 278 274 273 272 272 272 270 269 268 267 266 266 264 264 262 256 254 257 258 256 253 251 252 253 251 251 251 251 251 251 251 249 249 249 249 248 246 245 243 244 245 246 246 248 250 250 248 249 249 249 250 252 254 255 256 257 258 259 260 261 262 259 256 257
306 306 306 304 301 301 301 301 300 297 296 295 294 294 293 292 291 290 289 288 285 281 279 278 277 275 272 271 270 269 268 268 269 267 265 265 263 263 264 262 257 255 255 255 252 250 253 255 253 252 253 251 250 250 249 249 249 250 250 249 248 247 246 246 247 247 247 249 251 252 251 251 251 251 252 254 255 257 258 259 259 259 260 261 260 258 257 258
306 306 306 304 301 301 301 300 299 298 296 295 294 294 293 292 291 291 289 287 286 284 280 277 278 276 273 272 270 268 267 268 268 266 265 264 263 262 263 263 260 257 254 254 254 251 252 254 254 253 253 251 249 248 247 247 248 250 250 249 249 249 248 248 248 248 249 250 252 252 253 253 252 253 255 256 257 258 259 259 260 260 260 261 260 259 259 260
306 305 305 303 301 301 301 300 299 298 297 296 295 294 293 291 290 291 289 285 283 283 280 278 279 278 275 272 270 269 269 268 267 266 265 263 263 262 261 261 261 259 256 254 254 252 251 253 254 253 253 252 248 247 248 248 249 249 248 248 248 249 249 249 249 248 249 250 252 252 253 254 254 254 255 255 256 257 257 258 259 259 260 260 260 260 261 260
307 306 304 302 300 301 301 300 299 297 297 296 295 293 292 291 290 290 288 284 280 278 278 278 278 278 274 271 269 269 271 270 268 266 264 261 259 257 257 257 257 257 256 255 254 251 250 252 252 250 252 252 248 246 248 249 250 250 248 246 247 248 249 250 250 250 250 251 252 252 253 255 255 255 255 255 255 256 257 258 258 259 259 259 259 259 260 260